Home   Weather   Brandon   Past weeks

Flag for Canada Past Weather in Brandon, Manitoba, Canada — Yesterday and Last 2 Weeks

Now
70 °F

Partly sunny.


Feels Like: 70 °F
Forecast: 45 / 77 °F
Wind: 6 mph from North

Location: Brandon

Current Time: Aug 30, 2016 at 2:03:35 PM

Latest Report: Aug 30, 2016 at 1:00 PM


Visibility: 15 mi

Pressure: 30.29 "Hg

Humidity: 46%

Dew Point: 48 °F

Location of BrandonLocation

Past Weather in Brandon — Graph

°F

Brandon Temperature Yesterday

Maximum temperature yesterday: 70 °F (at 3:00 PM)
Minimum temperature yesterday: 46 °F (at 7:00 AM)
Average temperature yesterday: 59 °F

High & Low Weather Summary for the Past Weeks

 TemperatureHumidityPressure
High90 °F (Aug 22, 4:00 PM)100% (Aug 15, 11:00 PM)30.32 "Hg (Aug 15, 11:00 PM)
Low41 °F (Aug 21, 6:00 AM)31% (Aug 22, 4:00 PM)29.59 "Hg (Aug 22, 4:00 PM)
Average63 °F73%29.94 "Hg
* Reported Aug 15 1:00 PM — Aug 30 1:00 PM, Brandon, Weather by CustomWeather, © 2016

Note: Actual official high and low records may vary slightly from our data, if they occured in-between our weather recording intervals... More about our weather records

Advertising

Brandon Weather History for the Previous 24 Hours

Scroll right to see more
 ConditionsComfort  
Time TempWeatherWind HumidityBarometerVisibility
1:00 PM
Tue, Aug 30
70 °FPartly sunny.6 mph46%30.29 "Hg15 mi
12:00 PM68 °FPartly sunny.3 mph46%30.31 "Hg15 mi
11:00 AM66 °FPartly sunny.5 mph49%30.31 "Hg15 mi
10:00 AM63 °FScattered clouds.No wind56%30.31 "Hg15 mi
9:00 AM55 °FPartly sunny.3 mph77%30.32 "Hg15 mi
8:00 AM48 °FScattered clouds.5 mph94%30.31 "Hg15 mi
7:00 AM43 °FPassing clouds.3 mph93%30.30 "Hg15 mi
6:00 AM45 °FPassing clouds.3 mph87%30.29 "Hg15 mi
5:00 AM45 °FPassing clouds.6 mph93%30.29 "Hg15 mi
4:00 AM45 °FPassing clouds.6 mph93%30.27 "Hg15 mi
3:00 AM45 °FClear.3 mph87%30.27 "Hg15 mi
2:00 AM45 °FClear.3 mph87%30.27 "Hg15 mi
1:00 AM46 °FClear.2 mph93%30.27 "Hg15 mi
12:00 AM50 °FClear.2 mph82%30.26 "Hg15 mi
11:00 PM
Mon, Aug 29
50 °FClear.7 mph82%30.25 "Hg15 mi
10:00 PM54 °FPassing clouds.7 mph77%30.25 "Hg15 mi
9:00 PM57 °FPassing clouds.7 mph67%30.24 "Hg15 mi
8:00 PM64 °FPassing clouds.7 mph56%30.22 "Hg15 mi
7:00 PM70 °FPassing clouds.12 mph43%30.23 "Hg15 mi
6:00 PM70 °FPassing clouds.13 mph40%30.23 "Hg15 mi
5:00 PM70 °FPassing clouds.16 mph43%30.23 "Hg15 mi
4:00 PM70 °FPassing clouds.13 mph40%30.23 "Hg15 mi
3:00 PM70 °FPassing clouds.13 mph43%30.24 "Hg15 mi
2:00 PM68 °FPassing clouds.15 mph46%30.26 "Hg15 mi
Weather by CustomWeather, © 2016

See weather overviewHow to use our weather pages